ヘリン彗星

151P/Helin (2015)

English version
Home page
Updated on June 11, 2016

---------------------------------------------------------------------

・ プロフィール

・ 写真集

・ 軌道要素

Epoch 2015 Oct. 25.0 TT = JDT 2457320.5
T 2015 Oct. 8.07678 TT                                  MPCW
q   2.4737620            (2000.0)            P               Q
n   0.07088933     Peri.  216.26624     +0.99874632     +0.00845739
a   5.7820538      Node   143.15525     +0.00862402     +0.94181636
e   0.5721655      Incl.    4.71955     -0.04930943     +0.33602147
P  13.9
From 146 observations 1987 Sept. 17-2015 Aug. 22, mean residual 0".6.

・ 星図

・ 光度変化

        m1 = -8.8 + 5 logΔ + 62.5 log r(t - 28)

---------------------------------------------------------------------

軌道要素はM.P.E.C. 2015-Q71に掲載されたものです。
星図はステラナビゲータ Ver.8 (アストロアーツ) で作成したものです。
光度グラフはComet for Windowsで作成したものです。

---------------------------------------------------------------------

Copyright(C) Seiichi Yoshida (comet@aerith.net). All rights reserved.